Location: Bothwell
(42.3833°S, 147.0000°E)
Time: 22:54:44
(UTC+10:00)

CUTE 1.7 + AOD 2 - Pass Details

Date: 07 February 2023
Orbit: 584 x 601 km, 97.7° (Epoch: 02 April)

Event Time Altitude Azimuth Distance (km) Brightness Sun altitude
Exits shadow 03:48:23 44° 49° (NE) 828 ? -23.5°
Maximum altitude 03:49:28 61° 106° (ESE) 679 ? -23.3°
Drops below altitude 10° 03:53:39 10° 185° (S) 1,953 ? -22.9°
Sets 03:55:51 0° 188° (S) 2,866 ? -22.6°
